Theta_e
321 321 321 321 321 322 323 323 323 323 324 325 326 326 327 328 326 327 320 331 335 349 346 345 350 352 351 347 345 343 329 322 323 324 326 332 328 332 334 330 330 332 336 341 345
321 321 321 322 322 322 322 322 323 323 323 323 324 326 327 327 327 326 334 355 353 354 344 347 347 348 344 342 335 331 327 326 330 330 329 331 331 332 330 332 328 332 341 344 344
320 321 321 321 321 321 322 322 323 323 323 323 324 325 327 327 330 327 344 349 353 353 350 352 349 346 339 341 333 331 327 330 332 333 333 331 331 334 330 328 332 328 336 340 341
320 320 321 321 320 321 322 322 322 322 322 323 324 325 327 328 322 329 350 351 353 343 347 348 347 340 336 333 337 331 335 332 332 333 332 330 333 331 332 329 336 333 337 340 340
319 319 319 319 320 320 320 320 321 321 322 323 324 326 324 330 334 331 355 351 341 344 345 346 342 339 333 336 331 333 333 333 334 333 334 333 331 331 332 335 337 335 337 338 340
318 318 318 318 319 319 319 319 320 320 321 323 325 325 329 320 343 341 342 342 348 350 348 346 341 341 338 334 332 333 332 332 334 333 333 330 330 332 334 337 338 335 335 337 338
317 317 318 318 318 318 319 319 319 320 321 323 326 325 322 323 339 342 340 339 344 347 343 345 345 340 339 333 337 334 327 330 330 333 331 333 328 328 336 337 337 337 335 336 338
317 317 317 317 317 317 317 317 318 320 322 325 328 323 323 332 338 341 337 340 345 346 343 345 345 340 338 340 332 328 329 323 330 330 331 328 320 331 336 336 336 338 337 335 335
317 316 316 316 316 316 316 316 318 322 324 327 326 323 323 331 328 339 338 334 338 339 340 341 339 334 336 328 323 326 318 321 323 330 331 327 325 332 335 334 336 338 339 338 335
316 316 316 316 316 316 315 316 324 321 325 325 325 319 325 324 331 334 340 338 333 334 333 333 333 329 330 324 316 318 319 320 320 325 327 326 325 330 333 333 334 338 339 340 338
317 316 316 315 315 315 317 324 318 317 321 319 323 324 326 331 334 331 336 334 333 331 325 331 325 321 328 326 325 322 319 318 322 325 322 322 324 325 330 332 331 334 338 339 340
316 316 316 315 314 314 315 319 321 322 315 321 322 324 327 330 324 328 335 327 328 324 329 327 324 327 329 330 325 323 319 318 323 325 322 320 321 326 327 329 331 331 335 338 341
315 315 315 314 314 316 319 322 327 325 314 316 321 322 323 325 322 325 329 327 325 324 325 323 325 330 327 325 322 322 319 319 317 320 322 320 318 324 327 328 329 331 332 337 340
315 314 314 312 314 322 320 325 326 326 309 312 315 319 323 324 318 328 331 327 324 321 323 323 328 327 325 323 324 318 323 321 319 316 311 321 312 321 321 324 327 329 331 332 337
315 314 313 312 315 319 326 326 326 323 302 314 315 322 320 318 321 322 330 327 320 321 322 318 321 321 320 322 325 321 325 321 320 316 316 316 312 315 319 322 323 327 330 333 336
314 313 312 319 320 320 324 326 323 307 301 312 315 313 312 316 317 322 323 326 327 322 322 321 326 324 323 324 325 326 321 319 318 315 309 315 312 315 317 321 322 325 328 330 332
313 312 312 319 319 325 324 321 308 303 314 312 313 315 311 311 312 315 318 317 314 311 312 317 319 323 324 319 322 321 316 307 307 307 307 317 313 317 321 321 323 324 328 331 331
311 310 314 318 321 321 321 313 304 313 312 317 315 314 311 313 312 312 314 312 317 316 313 311 309 317 321 318 316 316 315 308 303 304 307 316 310 315 319 325 324 325 328 332 332
309 324 321 325 321 321 316 305 308 312 315 312 314 311 312 314 314 312 310 311 314 318 311 310 311 320 321 321 320 316 312 316 308 309 306 310 315 322 323 322 324 326 330 332 334
317 320 320 324 322 318 310 304 311 316 315 315 308 313 310 313 312 312 312 314 312 316 320 316 309 317 318 320 320 316 318 307 309 302 301 306 309 312 319 319 324 323 326 333 336
319 316 325 326 321 312 304 307 311 316 317 313 311 311 313 313 314 312 313 316 317 316 317 315 313 311 315 313 313 313 311 311 310 307 302 302 307 323 321 326 319 323 328 334 334
321 312 326 324 308 309 306 309 307 313 317 314 314 313 312 313 313 312 312 317 321 319 313 317 312 307 310 316 318 316 313 312 308 307 308 306 307 319 321 324 324 325 333 333 334
318 317 324 319 303 305 310 310 312 312 313 313 312 313 314 311 309 312 313 318 320 318 316 317 312 305 307 312 315 313 315 314 313 312 309 306 308 321 324 320 326 334 334 339 340
318 313 317 316 313 309 309 310 309 314 312 314 312 313 311 310 313 310 312 317 319 318 330 321 313 310 305 309 313 311 314 315 314 307 308 308 310 317 326 328 335 339 340 342 341
319 315 321 311 310 310 310 311 309 308 313 313 311 310 310 308 310 309 312 313 316 321 318 315 310 312 312 313 313 312 312 314 313 313 309 310 311 316 325 326 328 329 342 341 342
314 314 317 316 316 314 309 310 309 311 311 311 313 313 314 312 312 310 312 313 312 315 314 316 312 313 310 313 313 311 313 313 314 312 312 314 313 319 327 328 326 328 340 341 342
320 319 316 311 313 311 312 312 312 314 316 316 315 316 314 317 320 320 320 319 317 314 315 315 313 312 308 313 311 308 312 313 314 316 314 310 316 321 321 323 324 325 335 336 341
Wind_Speed
14 14 14 13 13 14 14 14 14 14 14 15 14 13 13 14 18 7 10 3 5 11 4 14 12 12 11 12 5 14 6 6 9 5 14 9 14 11 12 9 12 2 14 23 23
15 14 14 14 14 14 14 14 15 15 14 14 14 14 13 12 11 14 2 5 7 8 11 14 12 9 7 2 6 6 4 6 10 9 14 6 15 11 10 15 15 14 22 24 22
15 15 15 15 14 15 15 15 16 15 15 14 14 13 12 13 9 7 4 6 8 9 16 18 5 13 13 12 15 8 8 4 9 9 12 8 13 2 7 11 18 15 17 21 19
16 16 16 16 15 16 16 16 16 16 15 15 14 14 10 7 3 7 7 6 9 12 15 14 4 17 10 13 13 10 12 5 12 3 1 12 7 11 14 9 17 16 18 19 20
16 17 17 17 17 17 17 17 17 16 15 14 14 13 9 9 3 11 8 7 10 13 17 14 7 20 15 12 14 10 9 5 7 5 6 3 9 8 13 12 16 16 17 19 19
17 17 17 18 18 17 18 17 18 17 16 13 14 11 7 6 7 15 13 12 14 14 11 10 8 7 14 7 4 7 3 4 8 9 6 10 12 3 13 13 17 16 16 16 17
18 18 18 19 19 19 19 19 19 18 17 13 10 7 7 10 5 11 14 13 13 14 15 7 10 13 15 11 6 9 1 5 5 9 4 4 5 7 15 14 17 15 15 16 16
17 18 18 19 20 20 20 21 20 18 16 12 6 7 9 10 7 12 13 13 14 12 15 13 12 16 16 12 7 12 9 8 10 4 4 5 5 10 13 14 16 15 14 14 16
18 19 18 19 20 21 21 22 21 15 11 11 7 8 15 4 11 12 14 13 12 11 13 11 13 16 18 11 13 12 5 10 11 3 7 3 10 16 15 15 16 15 14 14 14
19 19 20 19 19 20 25 20 6 11 8 9 11 10 14 13 11 12 13 13 8 9 12 15 14 16 12 3 8 7 20 4 7 1 5 11 9 11 15 15 17 19 17 16 15
19 19 20 20 20 18 16 5 6 7 12 15 15 15 10 4 8 10 12 12 13 14 13 15 13 11 6 17 6 8 9 13 8 5 9 13 8 4 10 14 14 18 20 19 17
21 20 21 22 21 18 8 7 8 8 10 23 20 18 5 7 11 13 13 12 14 15 14 14 16 10 11 17 7 9 11 5 10 7 9 10 15 9 13 14 12 13 19 20 20
18 19 20 22 25 9 11 15 8 9 8 16 23 20 13 10 13 14 17 16 18 15 17 19 6 6 4 9 8 12 14 12 7 13 18 19 17 19 14 11 11 13 12 19 20
19 20 19 25 6 8 10 3 7 7 7 12 21 17 20 16 18 18 19 18 16 19 15 14 14 15 7 9 10 17 6 8 11 12 13 11 13 9 9 19 13 15 16 14 19
20 20 18 11 13 7 7 6 8 6 8 14 14 2 16 23 7 20 14 14 21 17 14 16 16 13 14 12 16 16 14 14 10 14 19 19 14 2 8 13 5 2 11 14 18
19 19 20 6 8 15 11 8 7 8 8 10 10 11 14 18 20 17 19 14 16 19 19 19 18 17 9 11 14 11 11 15 17 17 16 22 7 11 9 10 4 5 4 7 1
21 17 10 9 3 9 8 7 7 10 5 11 13 13 16 16 19 21 15 19 15 15 16 18 21 19 16 14 15 13 14 12 13 12 15 3 8 16 8 2 6 6 8 8 1
23 18 11 9 9 8 7 8 9 14 10 7 2 14 14 16 16 19 21 16 19 21 17 16 15 23 20 21 15 16 18 12 19 15 17 9 11 9 13 16 8 9 8 6 4
33 6 6 8 13 8 8 11 10 14 10 4 10 9 12 13 8 15 20 19 19 20 19 18 21 19 10 4 13 15 17 16 21 20 19 18 24 14 6 8 10 13 14 12 4
7 10 10 10 11 8 9 16 19 12 3 8 11 9 14 15 13 13 14 17 21 21 20 18 18 18 20 13 11 11 12 17 13 18 19 15 19 12 6 12 7 2 10 11 6
5 7 9 9 7 8 11 17 19 20 4 8 15 16 7 15 5 10 14 11 17 16 19 20 14 15 16 16 16 13 16 15 16 14 14 15 13 5 1 7 7 10 9 11 6
8 9 8 9 9 9 13 19 20 17 5 6 15 13 14 14 9 9 16 13 11 9 10 14 17 16 22 20 20 18 17 19 13 13 13 14 16 15 16 14 10 6 6 5 1
7 7 6 8 8 12 15 20 20 18 15 13 9 14 14 14 13 13 15 20 6 5 8 12 9 13 15 15 18 13 19 18 15 18 17 15 13 9 9 4 4 2 9 6 5
7 5 7 7 12 18 16 16 17 10 11 14 15 14 13 12 13 14 16 15 8 2 6 5 15 19 16 15 15 3 17 14 18 12 15 16 18 13 21 13 14 12 7 8 2
6 8 14 5 12 15 17 17 14 14 17 9 13 17 15 14 15 17 18 18 19 11 8 11 17 18 20 23 25 23 10 20 17 15 12 17 21 15 16 14 10 11 9 9 7
7 8 12 14 12 8 10 13 17 13 12 11 12 14 15 13 12 13 17 16 14 15 17 15 15 17 20 21 22 26 23 24 10 4 18 22 19 6 11 14 17 11 10 9 6
9 9 9 11 11 11 10 11 12 10 15 2 12 7 5 10 11 14 16 16 17 15 14 14 14 12 16 18 19 15 24 19 23 11 19 13 15 18 13 7 2 11 9 11 5
Wind_Direction
357 353 346 343 339 335 330 326 322 321 321 319 320 322 317 313 301 231 253 223 185 172 203 246 221 246 230 244 67 350 322 292 114 84 111 141 101 88 123 103 61 40 145 145 147
355 352 346 343 340 336 328 324 320 320 320 315 318 321 314 318 278 246 135 101 151 182 220 219 211 208 244 237 58 54 275 266 75 78 102 67 96 138 147 129 104 88 105 129 155
353 349 344 341 339 333 327 325 321 319 316 315 318 313 310 308 267 105 179 141 200 224 249 287 327 284 252 183 127 222 232 7 80 11 98 110 109 195 123 110 123 133 139 146 162
350 346 342 340 338 332 326 324 318 316 317 316 314 303 310 254 350 101 152 173 218 235 257 268 10 2 346 277 150 203 227 180 110 86 160 125 129 93 81 71 113 142 152 157 168
348 346 342 340 336 330 324 321 314 312 312 312 307 312 290 227 79 132 146 176 213 237 238 244 170 208 218 208 155 250 213 124 119 134 344 181 114 95 109 115 115 137 155 165 174
347 346 338 336 333 328 322 318 312 309 307 309 303 314 248 278 103 151 178 180 240 249 267 264 331 316 292 165 166 265 292 128 166 139 187 89 302 178 121 130 125 145 162 173 182
344 341 337 334 330 326 321 315 310 307 303 304 303 290 265 256 187 186 210 206 221 261 288 325 326 304 318 308 205 251 353 43 277 184 175 123 157 258 130 144 140 164 172 176 186
340 337 334 331 327 323 317 310 305 299 296 289 281 265 259 186 223 183 210 217 230 250 268 295 299 299 277 281 262 250 164 208 215 172 121 229 234 197 169 159 156 175 178 182 188
336 332 329 328 325 321 314 306 297 287 267 283 258 236 273 116 212 212 209 228 222 242 257 274 279 273 277 74 336 317 328 237 117 195 186 257 202 201 198 172 169 175 179 188 192
333 329 327 326 324 322 316 293 274 295 214 236 260 266 230 218 198 205 208 236 264 246 250 246 255 253 268 161 260 243 215 260 101 164 206 208 231 180 183 183 178 176 183 188 197
331 328 324 322 321 325 328 236 208 200 230 228 190 220 146 168 123 210 200 219 248 250 255 233 251 261 202 251 16 320 314 307 133 154 280 300 314 269 190 187 192 185 178 185 195
332 326 324 321 317 317 281 250 25 339 292 225 252 252 271 157 204 217 197 219 225 245 227 245 240 261 222 260 303 299 287 295 283 145 227 261 267 235 247 205 196 194 182 182 182
328 324 321 317 316 279 240 284 346 323 264 255 214 231 206 220 245 211 191 215 244 227 254 257 277 335 297 290 252 257 259 322 12 327 285 263 260 242 220 202 216 185 203 186 178
324 324 323 320 298 315 247 251 279 311 276 220 205 217 217 210 238 249 180 221 228 259 253 264 276 256 246 263 267 279 6 328 307 297 298 308 264 14 82 260 197 200 186 193 177
326 322 320 328 316 266 13 292 336 262 271 128 178 130 206 210 203 200 220 205 244 232 242 261 250 252 271 278 280 266 315 325 310 292 281 272 270 185 207 252 187 50 147 195 178
320 318 322 223 214 257 304 294 254 233 242 160 142 195 211 207 230 260 195 214 237 248 270 276 281 287 285 284 259 291 316 294 277 267 266 262 275 278 152 172 152 302 146 116 109
317 310 290 306 254 346 302 263 228 246 111 159 175 194 202 207 212 228 195 204 222 231 245 253 252 264 259 240 273 279 270 273 273 270 275 58 97 233 335 348 140 164 115 124 211
316 305 212 249 287 259 261 234 251 259 226 68 353 173 205 221 194 212 223 221 228 239 267 257 237 224 225 231 246 252 253 261 281 281 285 133 202 242 133 251 217 136 115 55 214
312 184 226 226 221 262 239 224 233 240 347 21 230 257 225 240 233 191 222 237 241 216 240 264 266 279 282 229 235 244 242 261 270 275 277 280 288 211 157 33 127 126 140 160 145
307 280 241 137 173 217 234 246 254 309 69 322 279 273 245 201 195 247 211 221 235 256 231 239 258 269 283 290 236 250 281 279 267 264 262 276 284 309 144 207 113 234 188 135 143
248 236 108 150 187 224 230 234 254 257 206 267 274 289 276 292 222 227 236 231 215 227 237 264 241 253 263 263 256 247 220 236 255 274 292 289 266 161 15 352 324 248 142 140 158
286 264 132 167 204 225 237 241 268 285 199 227 277 290 310 314 299 272 286 300 35 327 258 265 247 264 263 254 258 255 249 262 250 245 244 261 285 283 196 237 208 157 109 124 350
272 230 156 210 236 234 237 245 258 254 244 269 248 261 276 277 283 280 277 289 6 334 5 327 291 256 257 263 264 253 252 233 256 270 277 280 275 288 155 77 176 107 129 132 166
274 248 144 204 255 279 289 244 239 251 276 286 290 283 282 273 271 271 281 289 310 236 80 305 276 277 289 286 308 202 290 295 307 277 279 273 279 337 16 83 79 100 89 109 258
245 268 5 198 210 230 259 280 287 222 229 231 265 254 263 266 265 265 262 262 271 265 227 256 268 275 281 288 291 299 214 268 260 329 2 339 30 5 4 17 11 173 118 148 160
320 341 351 302 296 295 259 248 270 272 233 216 219 260 276 273 256 278 286 286 267 269 260 228 258 260 271 283 292 288 285 289 224 263 312 302 318 42 356 8 11 27 181 121 147
14 331 300 291 272 261 250 260 242 249 278 298 266 299 266 343 349 320 309 305 300 289 286 291 291 294 286 294 291 298 289 300 317 313 344 334 359 342 301 302 331 317 326 344 190